Retour au catalogue

FENGYUN 1C DEB

ActifSSO
NORAD 31157·DEBRIS·🇨🇳 China

Lancé May 10, 1999 depuis Taiyuan Satellite Launch Center

Loading…

Prochains Passages (prochaines 24 heures)

TLE

FraisSource: Space-Track

Époque: Sep 12, 2026, 03:58 UTC

1 31157U 99025BHK 26255.16538631  .00000254  00000-0  12591-3 0  9997
2 31157  98.5055 233.9317 0098629 249.4333 109.6243 14.22862700  8602

Suivez FENGYUN 1C DEB en temps réel avec AllMySat

Download on the App Store